Dewpoint
51 51 51 50 49 48 48 50 50 50 49 48 48 47 47 47 39 14 16 33 38 40 35 23 21 23 24 24 26 24 10 7 9 11 10 22 23 30 30 29 27 27 26 26 28
50 51 51 51 50 49 48 48 49 49 49 49 48 48 47 48 32 19 14 37 38 39 22 21 18 21 20 21 22 17 6 7 14 15 17 22 25 28 27 26 25 25 26 28 30
50 50 51 51 50 50 48 47 47 49 49 49 47 46 45 45 16 4 26 35 36 32 23 24 22 22 18 20 21 21 7 16 17 18 22 22 28 27 27 25 22 24 26 28 29
49 50 51 51 50 50 48 47 47 48 48 48 45 45 46 26 -7 4 29 32 33 23 22 21 19 18 15 12 17 16 19 18 19 20 23 23 28 27 26 22 25 27 27 27 27
49 49 50 51 50 49 48 47 48 48 48 48 47 46 32 11 4 10 25 24 21 22 21 21 18 16 13 15 17 18 20 21 20 21 24 30 30 30 28 24 25 25 24 25 26
49 49 50 51 50 49 47 47 47 47 47 48 47 45 26 2 10 14 16 19 21 20 20 20 20 22 17 15 16 19 20 19 19 21 30 29 28 28 27 26 22 20 19 22 25
51 49 50 50 49 48 46 46 45 46 45 46 45 41 23 9 12 13 15 18 19 20 19 21 21 17 18 14 17 19 14 15 17 26 29 29 26 26 26 24 21 19 18 21 22
52 50 50 50 49 47 46 45 45 46 45 43 44 32 8 8 12 11 15 17 17 17 21 22 22 19 14 17 15 15 13 -0 13 26 28 24 20 26 27 24 19 18 18 20 22
54 51 50 50 49 46 44 44 45 45 41 41 32 23 7 20 6 11 17 15 16 17 18 21 19 14 14 10 6 10 -5 5 8 23 26 26 22 27 27 21 17 17 18 20 22
55 52 50 49 47 43 43 43 43 39 29 30 18 8 7 6 21 22 20 23 19 19 20 15 12 9 11 4 -24 -7 4 9 8 14 17 19 22 25 21 18 16 17 18 20 21
56 53 50 48 42 41 35 25 25 25 20 10 9 7 6 7 10 13 17 17 14 14 12 15 3 -7 5 12 13 13 12 11 11 15 15 17 22 22 22 15 14 14 17 19 20
57 53 51 47 38 39 32 24 29 33 35 31 15 6 7 9 5 16 19 13 11 10 10 9 2 2 10 13 11 10 9 10 12 13 14 17 20 23 21 15 15 12 16 18 20
57 55 52 44 34 32 33 33 40 38 39 37 9 8 4 10 15 16 17 15 10 9 8 6 2 11 12 10 8 10 10 11 8 12 19 22 22 20 15 16 13 11 16 18 19
58 55 51 36 40 32 30 38 41 42 37 31 8 8 6 13 14 18 19 19 12 7 2 1 10 8 6 3 10 3 14 13 11 14 13 21 12 18 13 12 10 10 15 18 19
58 55 48 44 36 35 36 41 42 43 27 12 5 10 10 11 13 17 21 17 10 9 11 3 5 5 -3 2 11 8 14 16 17 17 19 17 16 15 12 10 12 10 15 17 19
58 49 46 45 41 40 41 43 43 34 25 16 7 6 9 19 13 17 18 20 21 12 7 5 14 10 9 12 12 14 17 14 12 17 13 14 14 12 14 13 12 11 15 16 18
50 48 46 45 43 42 44 44 35 31 26 20 7 9 17 30 18 24 16 8 8 3 4 7 4 9 14 5 10 12 11 -8 -6 -6 -13 9 14 13 14 15 13 11 14 16 18
47 45 44 43 44 44 44 39 30 32 32 17 16 23 13 4 4 10 15 15 16 18 9 -2 -6 9 13 11 8 12 5 -15 -34 -29 -7 10 8 9 16 14 12 13 15 16 17
44 42 42 43 45 45 41 32 33 33 28 28 29 31 30 7 20 11 9 12 13 20 -0 -0 -2 13 14 14 9 1 2 13 8 7 1 -0 7 10 16 12 12 12 14 14 16
42 40 38 43 45 43 38 34 36 31 25 27 34 33 24 7 15 22 11 17 15 18 21 9 -6 11 15 10 12 10 15 -6 5 -29 -41 -16 -4 -1 8 12 11 11 13 13 15
44 40 39 43 43 39 33 34 36 29 32 33 34 33 27 9 14 24 24 18 21 18 20 15 7 10 10 9 8 5 -0 14 10 5 -26 -25 -16 8 12 12 11 11 13 13 14
43 35 39 41 35 34 32 35 31 29 32 33 33 33 31 24 24 11 13 16 21 19 11 19 10 1 6 15 17 14 10 6 -22 -18 5 3 -13 18 14 13 11 12 13 13 14
38 33 39 38 32 31 32 32 32 30 29 31 31 30 27 26 26 15 14 22 22 19 13 15 4 -13 2 9 13 14 13 9 4 2 -3 -8 -27 13 15 12 11 13 12 12 14
36 33 33 35 33 33 32 32 32 31 31 31 30 28 24 24 14 19 15 20 22 23 24 18 9 -1 -16 -10 8 6 13 12 7 -10 -9 1 -6 -6 3 11 12 14 12 12 13
39 35 34 29 30 32 33 33 31 30 29 30 27 27 25 22 21 20 17 19 21 24 18 14 -9 5 4 8 10 7 9 12 6 -1 -10 -12 -1 -1 6 12 12 13 12 13 13
38 35 35 33 33 31 32 32 32 30 29 26 27 27 26 24 26 16 19 15 11 20 15 17 7 8 -2 10 10 7 9 12 11 10 5 7 4 10 12 11 13 14 13 13 13
41 41 38 34 31 31 31 32 33 32 31 31 29 26 25 24 23 20 19 18 19 18 14 11 8 -4 -20 10 7 -4 5 10 11 12 8 -9 -5 10 12 14 14 15 14 13 13
Wind_Speed
10 10 10 11 11 11 10 11 11 11 11 11 12 12 14 15 13 5 4 5 7 13 10 9 6 8 5 5 5 2 4 4 5 8 3 5 4 1 3 3 4 2 7 15 23
10 11 12 13 12 13 12 11 11 11 11 11 11 13 12 13 4 3 5 11 9 10 7 9 7 6 4 3 4 4 3 6 6 5 4 5 4 4 1 4 3 10 16 19 22
10 11 12 13 14 14 14 14 13 12 12 11 10 10 11 7 4 0 9 11 10 7 1 2 2 2 4 3 3 2 1 5 4 6 4 3 5 3 3 1 5 17 24 25 24
9 9 11 12 14 15 15 15 15 13 11 10 10 10 9 2 5 1 11 10 8 7 2 5 3 2 3 2 2 2 3 4 1 5 4 5 9 4 4 1 8 14 18 19 22
11 11 11 12 14 16 17 16 16 14 11 8 9 10 3 2 4 5 11 9 3 3 8 4 5 2 3 1 1 2 2 3 3 4 3 10 4 4 7 2 10 13 16 22 22
10 10 12 13 14 16 17 17 16 13 11 7 6 6 2 5 2 7 10 3 6 5 6 8 2 1 4 1 1 1 2 5 3 3 7 6 3 4 6 5 13 15 20 21 23
9 9 11 13 14 15 16 16 16 14 10 8 5 0 1 8 2 6 11 3 4 3 2 3 0 3 1 1 4 2 4 4 3 1 3 4 6 6 1 9 17 19 20 21 25
11 10 9 10 14 17 18 16 15 13 11 7 5 2 4 2 1 8 10 2 5 3 2 3 1 4 3 2 4 2 3 3 2 3 2 5 7 3 2 10 21 22 24 23 26
11 11 10 12 14 17 19 21 18 11 7 6 3 2 4 4 3 3 8 8 11 3 2 2 3 3 3 2 1 5 4 3 6 3 2 8 6 1 4 10 18 22 24 25 27
13 11 9 11 12 16 21 20 9 4 1 2 4 3 1 1 1 3 7 9 5 7 1 3 3 0 3 4 6 3 5 4 7 2 4 8 18 4 2 11 17 21 25 27 30
15 13 10 9 9 11 11 6 5 3 2 5 1 2 3 1 2 4 3 2 3 2 6 1 3 7 1 2 1 3 5 10 8 6 6 8 11 8 6 16 20 23 27 29 31
16 14 10 7 8 8 2 2 2 1 10 5 2 2 3 1 1 8 9 2 3 5 2 1 7 1 1 3 2 4 6 7 7 6 4 8 14 6 5 11 12 23 26 30 29
17 15 11 6 5 3 2 1 2 2 3 2 2 2 2 3 2 4 5 1 1 2 5 6 0 0 2 2 4 3 6 3 6 9 5 7 7 2 8 5 11 22 25 31 33
21 19 12 1 3 3 2 4 1 2 3 2 1 2 2 4 1 3 3 1 1 3 2 2 1 0 2 2 1 4 2 3 14 3 4 5 9 3 11 20 28 31 32 33 33
23 20 16 6 5 4 2 4 0 1 8 1 1 2 2 3 1 2 2 1 2 2 2 0 2 2 2 1 2 2 8 4 2 2 4 1 3 4 8 21 28 30 30 33 32
13 20 21 8 2 2 6 5 0 0 7 0 2 1 1 4 3 2 3 4 1 2 2 1 1 2 3 5 2 5 1 2 4 3 3 1 1 5 6 10 22 30 31 34 34
22 19 8 4 3 7 6 2 2 6 2 1 1 1 1 2 2 2 5 2 1 1 3 1 0 2 3 3 1 8 1 4 3 1 4 1 1 7 2 9 12 25 30 32 31
18 9 9 4 9 5 4 3 8 3 4 1 0 2 3 1 1 1 1 4 1 1 2 2 3 5 6 3 2 4 1 3 6 5 7 2 3 4 1 8 11 15 19 25 29
11 5 4 5 2 3 1 5 5 4 1 5 1 1 1 1 1 4 2 2 1 1 3 4 2 2 5 4 1 1 5 3 4 1 4 3 5 8 2 14 22 25 26 31 31
5 4 4 6 2 1 3 6 5 2 3 1 4 3 3 3 3 3 3 1 2 2 1 3 2 1 2 1 10 5 8 2 3 6 7 4 5 6 18 24 25 29 29 29 30
2 1 2 4 2 0 8 8 5 2 4 4 5 5 7 4 5 4 3 2 3 2 2 4 1 1 1 4 1 2 2 5 6 3 2 8 2 5 6 12 19 23 22 25 28
1 2 4 4 3 2 4 3 1 3 1 3 3 6 7 7 5 4 4 1 3 3 3 3 2 2 1 2 1 1 2 2 2 2 1 2 7 3 5 9 10 20 21 22 21
2 3 2 2 6 6 2 3 3 3 5 5 5 5 3 7 4 4 2 1 3 3 3 4 1 2 0 1 2 3 3 4 6 4 5 2 6 2 5 12 12 17 21 23 21
3 1 1 1 1 2 5 6 5 2 3 4 2 5 3 5 2 2 4 2 1 2 3 1 2 4 3 0 3 3 5 6 3 3 3 9 13 17 15 15 16 18 19 21 20
4 4 5 5 8 11 7 4 6 5 5 7 4 10 8 6 5 6 3 2 1 2 2 2 3 2 1 0 2 3 5 11 10 5 6 2 9 23 19 7 10 9 18 20 25
4 4 3 2 2 9 10 8 17 7 9 7 11 13 13 7 7 10 10 7 5 3 4 1 1 1 2 1 2 7 8 10 8 5 16 11 19 8 3 1 7 10 15 19 21
2 0 2 5 3 5 7 9 10 11 10 2 10 8 13 7 6 2 5 6 6 7 9 5 6 2 3 2 6 10 12 17 7 8 7 4 4 3 5 7 5 9 10 15 17
Wind_Direction
342 347 344 345 346 345 346 341 335 331 324 324 326 332 339 342 337 349 36 288 324 328 345 336 19 20 42 50 45 98 84 164 186 169 207 185 198 134 94 78 8 314 277 288 303
336 340 337 339 340 339 338 337 329 329 324 320 319 322 332 344 340 331 310 333 331 343 348 6 357 17 58 39 28 62 111 184 180 180 199 203 199 160 161 3 330 303 296 304 308
333 334 334 336 334 332 335 327 330 322 323 317 319 322 330 345 348 135 332 341 336 343 104 58 347 33 76 23 26 94 127 175 207 212 210 204 160 121 132 317 333 313 308 314 316
317 326 327 332 328 329 331 327 324 319 318 312 323 327 338 1 319 265 339 336 336 5 66 46 48 45 82 60 30 112 158 170 212 212 185 221 138 139 140 181 292 291 299 310 313
314 322 325 327 328 329 328 326 320 321 319 306 317 333 2 4 273 338 339 337 349 3 45 45 57 78 83 5 13 148 187 219 283 250 234 138 167 208 197 310 309 304 310 310 309
300 315 320 322 325 325 324 324 321 319 315 297 310 340 17 294 131 9 350 343 26 18 42 54 52 90 90 62 10 334 276 287 291 307 181 186 176 163 215 315 320 336 327 316 312
287 297 309 316 317 319 321 322 319 310 307 287 285 249 128 259 114 11 16 359 18 7 44 60 189 76 74 78 340 27 316 344 12 234 177 142 257 232 290 325 325 327 322 319 321
279 284 296 306 313 318 318 315 313 303 300 293 275 175 232 147 209 27 358 5 352 10 11 301 38 95 50 338 23 54 56 336 291 178 175 108 274 235 282 325 325 325 325 325 320
264 276 290 303 313 319 317 311 302 284 279 275 273 236 273 127 54 15 43 1 318 33 334 1 48 70 48 48 293 24 282 276 310 183 167 206 271 230 315 329 330 328 325 325 323
243 255 266 293 311 323 321 309 298 317 268 206 267 280 86 84 27 12 22 17 338 350 322 358 25 350 59 44 291 300 308 274 265 281 272 247 263 223 239 350 331 326 329 326 334
228 237 250 277 308 328 340 348 341 293 237 244 291 312 57 28 116 38 17 311 220 180 224 347 272 263 242 156 292 295 266 273 268 281 298 257 264 239 293 347 338 339 334 335 331
224 226 239 268 311 337 16 328 195 244 303 5 283 90 84 49 18 16 2 296 200 229 115 237 244 192 111 194 335 277 275 275 281 256 313 292 278 258 294 330 326 337 337 335 332
215 216 222 247 324 33 74 177 336 179 294 326 351 31 38 27 112 303 348 257 73 231 223 236 90 148 168 234 325 281 227 265 270 306 266 317 290 271 308 307 326 347 346 342 339
215 204 187 189 280 144 269 148 243 252 316 222 331 352 25 92 97 343 359 1 80 243 188 251 10 154 218 277 120 316 211 281 293 283 315 8 302 240 330 335 357 346 345 338 341
216 192 142 140 158 141 147 136 260 245 315 70 49 306 32 78 309 351 8 286 177 181 172 154 327 324 284 251 197 241 323 284 236 178 346 314 256 239 4 348 344 342 338 334 337
226 133 126 114 357 113 149 143 144 106 259 237 93 350 305 12 46 324 15 40 27 110 63 88 75 12 313 312 221 342 148 45 60 49 286 203 350 289 8 327 341 337 339 336 337
121 120 78 147 135 152 159 163 257 208 89 260 339 5 278 312 21 53 0 359 230 204 215 312 280 347 11 339 109 35 73 319 318 348 259 108 233 280 270 349 340 332 334 330 334
106 83 52 77 114 146 182 87 230 256 246 108 60 273 258 39 29 324 185 267 85 125 170 236 263 16 4 43 334 25 77 80 302 294 296 309 267 327 232 356 333 321 324 330 340
104 48 53 19 107 144 249 210 231 251 119 156 254 304 255 214 212 347 259 250 149 180 218 176 244 91 66 50 14 3 45 143 101 206 297 288 287 289 253 355 347 349 348 343 341
99 90 49 333 339 277 194 222 230 132 124 239 233 214 251 201 194 167 254 151 186 198 150 181 253 57 120 254 43 81 143 53 28 338 304 310 288 297 339 347 343 349 348 340 339
106 100 17 334 318 140 225 223 209 148 132 221 228 223 218 203 206 210 217 241 205 164 137 152 219 197 162 23 57 59 71 75 108 107 298 313 303 243 310 350 337 340 342 338 339
203 226 357 351 139 225 227 249 18 140 139 209 271 233 204 176 198 234 221 221 166 169 189 173 143 207 175 150 251 101 161 161 109 292 156 223 284 241 252 348 331 341 343 338 338
119 93 5 32 220 221 247 244 185 181 218 189 218 211 166 181 212 224 193 76 153 167 193 178 212 274 275 82 6 226 154 124 110 98 213 245 308 254 298 340 350 346 347 344 347
137 233 43 280 299 208 217 252 233 189 210 194 191 120 143 190 147 192 205 186 171 210 142 136 166 225 261 180 125 194 181 175 144 176 190 237 294 318 335 353 346 349 348 348 347
205 230 176 209 236 213 194 210 217 247 217 190 214 214 177 176 175 213 192 183 247 230 86 157 251 214 264 167 198 230 194 192 201 201 231 278 279 298 315 339 335 332 341 3 358
222 181 171 188 253 214 210 226 235 209 177 223 226 193 184 187 187 189 170 207 196 151 173 130 196 146 270 112 256 266 234 206 217 234 258 271 285 239 282 315 336 348 354 6 359
158 82 180 181 197 177 215 231 241 189 206 169 204 155 192 186 162 71 107 90 133 170 176 170 160 148 270 323 311 284 234 195 186 211 192 239 238 291 313 357 348 342 7 355 359